| time (UTC) | temp F | wind direction | speed knots | gust knots | rain 1hr in | rain 24hr in | rain mn in | humidity % | barometer mb |
| 20260506014106 | 47 | 258 | 0.9 | 3.5 | 0.07 | 0.68 | 0.68 | 89 | 1008.6 |
| 20260506013605 | 47 | 0 | 0.0 | 1.7 | 0.07 | 0.68 | 0.68 | 89 | 1008.4 |
| 20260506013102 | 47 | 336 | 2.6 | 3.5 | 0.07 | 0.67 | 0.67 | 89 | 1008.4 |
| 20260506012558 | 47 | 329 | 1.7 | 2.6 | 0.12 | 0.67 | 0.67 | 89 | 1008.3 |
| 20260506012055 | 47 | 19 | 0.0 | 1.7 | 0.12 | 0.66 | 0.66 | 89 | 1008.1 |
| 20260506011553 | 48 | 319 | 2.6 | 3.5 | 0.09 | 0.65 | 0.65 | 89 | 1008.3 |
| 20260506011048 | 48 | 212 | 0.0 | 0.9 | 0.09 | 0.64 | 0.64 | 89 | 1008.2 |
| 20260506010542 | 47 | 15 | 0.9 | 1.7 | 0.09 | 0.63 | 0.63 | 89 | 1008.2 |
| 20260506010038 | 48 | 40 | 0.0 | 1.7 | 0.09 | 0.62 | 0.62 | 89 | 1007.9 |
| 20260506005535 | 48 | 354 | 0.9 | 2.6 | 0.07 | 0.61 | 0.61 | 89 | 1008.1 |
| 20260506005031 | 47 | 331 | 0.0 | 2.6 | 0.05 | 0.61 | 0.61 | 89 | 1008.2 |
| 20260506004529 | 47 | 347 | 0.0 | 1.7 | 0.07 | 0.60 | 0.60 | 89 | 1008.0 |
| 20260506004025 | 47 | 65 | 0.0 | 1.7 | 0.07 | 0.59 | 0.59 | 88 | 1007.9 |
| 20260506003522 | 47 | 359 | 1.7 | 3.5 | 0.09 | 0.59 | 0.59 | 88 | 1007.7 |
| 20260506003018 | 48 | 1 | 0.9 | 2.6 | 0.07 | 0.58 | 0.58 | 89 | 1007.9 |
| 20260506002514 | 48 | 337 | 1.7 | 3.5 | 0.05 | 0.57 | 0.57 | 88 | 1007.9 |
| 20260506002010 | 48 | 21 | 1.7 | 2.6 | 0.02 | 0.57 | 0.57 | 89 | 1007.8 |
| 20260506001507 | 48 | 15 | 0.9 | 2.6 | 0.02 | 0.57 | 0.57 | 89 | 1008.0 |
| 20260506001004 | 48 | 48 | 0.0 | 1.7 | 0.05 | 0.56 | 0.56 | 89 | 1007.9 |
| 20260506000501 | 48 | 32 | 0.0 | 1.7 | 0.05 | 0.56 | 0.56 | 88 | 1007.9 |
| 20260505235958 | 48 | 52 | 0.0 | 1.7 | 0.05 | 0.56 | 0.56 | 88 | 1007.9 |
| 20260505235456 | 48 | 14 | 0.0 | 2.6 | 0.07 | 0.55 | 0.55 | 88 | 1007.8 |
| 20260505234953 | 48 | 350 | 2.6 | 3.5 | 0.05 | 0.54 | 0.54 | 88 | 1008.1 |
| 20260505234450 | 48 | 317 | 2.6 | 4.3 | 0.05 | 0.54 | 0.54 | 88 | 1008.1 |
| 20260505233947 | 48 | 327 | 0.0 | 3.5 | 0.05 | 0.54 | 0.54 | 88 | 1008.1 |
| 20260505233444 | 48 | 320 | 3.5 | 4.3 | 0.05 | 0.53 | 0.53 | 88 | 1008.1 |
| 20260505232942 | 48 | 310 | 1.7 | 4.3 | 0.05 | 0.53 | 0.53 | 88 | 1008.3 |
| 20260505232440 | 48 | 295 | 1.7 | 5.2 | 0.05 | 0.52 | 0.52 | 88 | 1008.1 |
| 20260505231937 | 48 | 331 | 2.6 | 6.1 | 0.05 | 0.52 | 0.52 | 88 | 1007.9 |
| 20260505231434 | 48 | 318 | 3.5 | 7.8 | 0.05 | 0.52 | 0.52 | 89 | 1008.0 |
| 20260505230932 | 49 | 314 | 7.8 | 7.8 | 0.05 | 0.51 | 0.51 | 89 | 1007.8 |
| 20260505230429 | 49 | 322 | 7.0 | 9.6 | 0.05 | 0.51 | 0.51 | 89 | 1007.7 |
| 20260505225925 | 49 | 331 | 3.5 | 6.1 | 0.05 | 0.50 | 0.50 | 89 | 1007.5 |
| 20260505225423 | 49 | 15 | 2.6 | 7.8 | 0.07 | 0.50 | 0.50 | 89 | 1007.5 |
| 20260505224918 | 49 | 347 | 2.6 | 8.7 | 0.09 | 0.50 | 0.50 | 89 | 1007.6 |
| 20260505224415 | 48 | 7 | 2.6 | 7.8 | 0.07 | 0.49 | 0.49 | 89 | 1007.6 |
| 20260505223912 | 49 | 332 | 6.1 | 7.8 | 0.05 | 0.48 | 0.48 | 89 | 1007.7 |
| 20260505223409 | 49 | 8 | 1.7 | 7.8 | 0.05 | 0.47 | 0.47 | 89 | 1007.8 |
| 20260505222906 | 49 | 359 | 1.7 | 4.3 | 0.07 | 0.47 | 0.47 | 88 | 1007.6 |
| 20260505222402 | 49 | 40 | 0.0 | 5.2 | 0.07 | 0.47 | 0.47 | 88 | 1007.5 |
| 20260505221858 | 49 | 5 | 0.9 | 3.5 | 0.05 | 0.46 | 0.46 | 88 | 1007.4 |
| 20260505221355 | 49 | 357 | 1.7 | 4.3 | 0.02 | 0.45 | 0.45 | 88 | 1007.6 |
| 20260505220853 | 49 | 26 | 0.9 | 3.5 | 0.02 | 0.45 | 0.45 | 88 | 1007.6 |
| 20260505220350 | 49 | 29 | 3.5 | 5.2 | 0.00 | 0.45 | 0.45 | 88 | 1007.3 |
| 20260505215847 | 49 | 4 | 2.6 | 3.5 | 0.02 | 0.45 | 0.45 | 88 | 1007.5 |
| 20260505215345 | 49 | 357 | 3.5 | 6.1 | 0.05 | 0.45 | 0.45 | 88 | 1007.5 |
| 20260505214843 | 49 | 3 | 2.6 | 6.1 | 0.02 | 0.44 | 0.44 | 88 | 1007.5 |
| 20260505214340 | 49 | 2 | 1.7 | 7.0 | 0.02 | 0.44 | 0.44 | 88 | 1007.6 |
| 20260505213837 | 50 | 328 | 7.0 | 8.7 | 0.07 | 0.43 | 0.43 | 88 | 1007.6 |
| 20260505213335 | 50 | 310 | 0.9 | 2.6 | 0.12 | 0.43 | 0.43 | 89 | 1007.6 |
| 20260505212831 | 50 | 280 | 2.6 | 4.3 | 0.12 | 0.42 | 0.42 | 88 | 1007.6 |
| 20260505212328 | 50 | 334 | 2.6 | 7.0 | 0.09 | 0.41 | 0.41 | 88 | 1007.6 |
| 20260505211824 | 50 | 313 | 3.5 | 6.1 | 0.12 | 0.40 | 0.40 | 88 | 1007.6 |
| 20260505211322 | 50 | 337 | 4.3 | 9.6 | 0.14 | 0.39 | 0.39 | 88 | 1007.4 |
| 20260505210818 | 50 | 307 | 4.3 | 6.1 | 0.21 | 0.38 | 0.38 | 89 | 1007.3 |
| 20260505210315 | 50 | 294 | 2.6 | 7.8 | 0.19 | 0.36 | 0.36 | 88 | 1007.3 |
| 20260505205812 | 50 | 321 | 4.3 | 7.0 | 0.17 | 0.35 | 0.35 | 88 | 1007.4 |
| 20260505205310 | 50 | 311 | 1.7 | 5.2 | 0.17 | 0.33 | 0.33 | 88 | 1007.2 |
| 20260505204807 | 50 | 311 | 2.6 | 7.0 | 0.19 | 0.32 | 0.32 | 87 | 1007.3 |
| 20260505204305 | 50 | 310 | 4.3 | 7.0 | 0.19 | 0.30 | 0.30 | 87 | 1007.1 |
| 20260505203802 | 50 | 13 | 2.6 | 7.0 | 0.17 | 0.28 | 0.28 | 87 | 1007.4 |
| 20260505203259 | 50 | 315 | 3.5 | 6.1 | 0.12 | 0.27 | 0.27 | 87 | 1007.3 |
| 20260505202754 | 50 | 313 | 4.3 | 9.6 | 0.07 | 0.26 | 0.26 | 86 | 1007.2 |
| 20260505202251 | 50 | 303 | 2.6 | 10.4 | 0.02 | 0.24 | 0.24 | 86 | 1007.1 |
| 20260505201747 | 50 | 309 | 4.3 | 8.7 | 0.07 | 0.24 | 0.24 | 86 | 1007.1 |
| 20260505201245 | 50 | 324 | 6.1 | 9.6 | 0.07 | 0.24 | 0.24 | 87 | 1007.2 |
| 20260505200743 | 51 | 333 | 9.6 | 13.0 | 0.05 | 0.23 | 0.23 | 86 | 1007.1 |
| 20260505200240 | 51 | 311 | 7.8 | 8.7 | 0.05 | 0.22 | 0.22 | 86 | 1006.9 |
| 20260505195735 | 51 | 309 | 1.7 | 13.0 | 0.05 | 0.22 | 0.22 | 86 | 1007.3 |
| 20260505195233 | 51 | 313 | 2.6 | 7.0 | 0.05 | 0.22 | 0.22 | 87 | 1007.4 |
| 20260505194730 | 51 | 313 | 4.3 | 9.6 | 0.02 | 0.21 | 0.21 | 86 | 1007.6 |
| 20260505194226 | 51 | 287 | 5.2 | 10.4 | 0.05 | 0.20 | 0.20 | 87 | 1007.7 |
| 20260505193722 | 51 | 306 | 2.6 | 8.7 | 0.09 | 0.20 | 0.20 | 87 | 1007.7 |
| 20260505193220 | 52 | 298 | 4.3 | 9.6 | 0.09 | 0.20 | 0.20 | 87 | 1007.8 |
| 20260505192718 | 52 | 306 | 3.5 | 7.0 | 0.07 | 0.18 | 0.18 | 87 | 1007.9 |
| 20260505192215 | 52 | 278 | 3.5 | 7.8 | 0.09 | 0.18 | 0.18 | 87 | 1008.1 |
| 20260505191714 | 52 | 287 | 2.6 | 7.0 | 0.09 | 0.17 | 0.17 | 87 | 1008.0 |
| 20260505191212 | 52 | 269 | 4.3 | 9.6 | 0.09 | 0.16 | 0.16 | 86 | 1008.1 |
| 20260505190708 | 52 | 285 | 3.5 | 8.7 | 0.09 | 0.15 | 0.15 | 86 | 1007.9 |
| 20260505190207 | 52 | 272 | 3.5 | 7.8 | 0.07 | 0.14 | 0.14 | 86 | 1007.8 |
| 20260505185704 | 52 | 281 | 2.6 | 6.1 | 0.12 | 0.14 | 0.14 | 85 | 1007.7 |
| 20260505185201 | 52 | 276 | 5.2 | 7.0 | 0.12 | 0.13 | 0.13 | 85 | 1007.6 |
| 20260505184657 | 52 | 266 | 7.0 | 7.0 | 0.07 | 0.12 | 0.12 | 83 | 1007.9 |
| 20260505184154 | 53 | 281 | 4.3 | 7.8 | 0.02 | 0.11 | 0.11 | 84 | 1007.7 |
| 20260505183651 | 53 | 286 | 5.2 | 8.7 | 0.02 | 0.11 | 0.11 | 83 | 1007.4 |
| 20260505183149 | 53 | 275 | 5.2 | 7.8 | 0.00 | 0.10 | 0.10 | 82 | 1007.4 |
| 20260505182645 | 53 | 267 | 4.3 | 7.8 | 0.02 | 0.10 | 0.10 | 81 | 1007.3 |
| 20260505182142 | 53 | 257 | 4.3 | 8.7 | 0.05 | 0.10 | 0.10 | 80 | 1007.5 |
| 20260505181638 | 53 | 278 | 2.6 | 8.7 | 0.02 | 0.10 | 0.10 | 81 | 1007.4 |
| 20260505181136 | 53 | 242 | 6.1 | 8.7 | 0.02 | 0.09 | 0.09 | 78 | 1007.2 |
| 20260505180632 | 53 | 256 | 4.3 | 8.7 | 0.02 | 0.09 | 0.09 | 80 | 1007.4 |
| 20260505180130 | 53 | 240 | 3.5 | 7.8 | 0.05 | 0.09 | 0.09 | 79 | 1007.5 |
| 20260505175625 | 53 | 226 | 3.5 | 6.1 | 0.09 | 0.09 | 0.09 | 81 | 1007.4 |
| 20260505175121 | 53 | 220 | 1.7 | 6.1 | 0.07 | 0.08 | 0.08 | 80 | 1007.2 |
| 20260505174613 | 54 | 253 | 7.8 | 7.8 | 0.05 | 0.07 | 0.07 | 80 | 1007.2 |
| 20260505174109 | 54 | 274 | 7.0 | 10.4 | 0.09 | 0.07 | 0.07 | 81 | 1007.6 |
| 20260505173606 | 55 | 265 | 5.2 | 10.4 | 0.07 | 0.06 | 0.06 | 83 | 1007.5 |
| 20260505173102 | 55 | 277 | 4.3 | 9.6 | 0.07 | 0.05 | 0.05 | 82 | 1007.5 |
| 20260505172600 | 55 | 248 | 7.0 | 8.7 | 0.07 | 0.04 | 0.04 | 82 | 1007.6 |
| 20260505172057 | 55 | 278 | 7.8 | 9.6 | 0.09 | 0.04 | 0.04 | 82 | 1007.5 |
| 20260505171556 | 56 | 283 | 7.8 | 9.6 | 0.12 | 0.03 | 0.03 | 81 | 1007.3 |
| 20260505171054 | 56 | 254 | 7.0 | 8.7 | 0.09 | 0.02 | 0.02 | 81 | 1007.4 |
| 20260505170551 | 57 | 302 | 5.2 | 11.3 | 0.02 | 0.00 | 0.00 | 79 | 1007.5 |
| 20260505170048 | 57 | 272 | 6.1 | 13.0 | 0.02 | 0.00 | 0.00 | 79 | 1007.7 |
| 20260505165543 | 58 | 266 | 5.2 | 14.8 | 0.00 | 0.00 | 0.00 | 78 | 1007.4 |
| 20260505165039 | 59 | 249 | 6.1 | 13.0 | 0.00 | 0.00 | 0.00 | 77 | 1007.5 |
| 20260505164535 | 59 | 262 | 14.8 | 15.6 | 0.00 | 0.00 | 0.00 | 75 | 1007.5 |
| 20260505164033 | 59 | 252 | 14.8 | 15.6 | 0.00 | 0.00 | 0.00 | 72 | 1007.5 |
| 20260505163531 | 59 | 267 | 14.8 | 19.1 | 0.00 | 0.00 | 0.00 | 72 | 1007.5 |
| 20260505163027 | 59 | 257 | 8.7 | 19.1 | 0.00 | 0.00 | 0.00 | 73 | 1007.5 |
| 20260505162521 | 59 | 242 | 6.1 | 14.8 | 0.00 | 0.00 | 0.00 | 72 | 1007.5 |
| 20260505162018 | 60 | 256 | 9.6 | 17.4 | 0.00 | 0.00 | 0.00 | 70 | 1007.7 |
| 20260505161514 | 59 | 256 | 14.8 | 21.7 | 0.00 | 0.00 | 0.00 | 69 | 1007.5 |
| 20260505161012 | 59 | 242 | 12.2 | 22.6 | 0.00 | 0.00 | 0.00 | 69 | 1007.4 |
| 20260505160510 | 60 | 257 | 17.4 | 20.9 | 0.00 | 0.00 | 0.00 | 69 | 1007.3 |
| 20260505152946 | 60 | 253 | 14.8 | 21.7 | 0.00 | 0.00 | 0.00 | 71 | 1007.3 |
| 20260505152443 | 60 | 276 | 10.4 | 14.8 | 0.00 | 0.00 | 0.00 | 71 | 1007.3 |
| 20260505151938 | 60 | 254 | 9.6 | 19.1 | 0.00 | 0.00 | 0.00 | 70 | 1007.1 |
| 20260505151433 | 60 | 249 | 19.1 | 27.8 | 0.00 | 0.00 | 0.00 | 69 | 1007.4 |
| 20260505150931 | 60 | 265 | 14.8 | 21.7 | 0.00 | 0.00 | 0.00 | 70 | 1007.1 |
| 20260505150427 | 61 | 252 | 20.0 | 26.1 | 0.00 | 0.00 | 0.00 | 70 | 1006.9 |
| 20260505140352 | 62 | 258 | 14.8 | 20.9 | 0.00 | 0.00 | 0.00 | 66 | 1005.1 |
| 20260505124806 | 60 | 245 | 4.3 | 15.6 | 0.00 | 0.00 | 0.00 | 69 | 1005.0 |
| 20260505124303 | 60 | 243 | 7.8 | 17.4 | 0.00 | 0.00 | 0.00 | 68 | 1005.1 |
| 20260505123758 | 60 | 223 | 13.0 | 15.6 | 0.00 | 0.00 | 0.00 | 68 | 1005.1 |
| 20260505123255 | 60 | 222 | 7.0 | 18.2 | 0.00 | 0.00 | 0.00 | 69 | 1005.5 |
| 20260505122751 | 59 | 255 | 24.3 | 24.3 | 0.00 | 0.00 | 0.00 | 69 | 1005.1 |
| 20260505122249 | 58 | 238 | 8.7 | 13.0 | 0.00 | 0.00 | 0.00 | 72 | 1005.2 |
| 20260505121745 | 58 | 239 | 7.8 | 14.8 | 0.00 | 0.00 | 0.00 | 72 | 1005.1 |
| 20260505121242 | 59 | 254 | 12.2 | 17.4 | 0.00 | 0.00 | 0.00 | 71 | 1004.9 |
| 20260505120738 | 59 | 232 | 7.8 | 16.5 | 0.00 | 0.00 | 0.00 | 71 | 1005.4 |
| 20260505120235 | 59 | 225 | 5.2 | 18.2 | 0.00 | 0.00 | 0.00 | 70 | 1005.0 |
| 20260505115733 | 59 | 245 | 9.6 | 15.6 | 0.00 | 0.00 | 0.00 | 70 | 1005.4 |
| 20260505115231 | 59 | 248 | 7.8 | 14.8 | 0.00 | 0.00 | 0.00 | 69 | 1004.9 |
| 20260505114728 | 59 | 221 | 8.7 | 15.6 | 0.00 | 0.00 | 0.00 | 69 | 1004.8 |
| 20260505114224 | 59 | 239 | 7.8 | 13.9 | 0.00 | 0.00 | 0.00 | 69 | 1004.6 |
| 20260505113721 | 59 | 215 | 5.2 | 10.4 | 0.00 | 0.00 | 0.00 | 68 | 1004.6 |
| 20260505113217 | 59 | 224 | 3.5 | 10.4 | 0.00 | 0.00 | 0.00 | 68 | 1004.4 |
| 20260505112713 | 59 | 224 | 7.0 | 7.8 | 0.00 | 0.00 | 0.00 | 68 | 1004.3 |
| 20260505112211 | 59 | 229 | 2.6 | 13.0 | 0.00 | 0.00 | 0.00 | 67 | 1004.1 |
| 20260505111706 | 59 | 230 | 3.5 | 13.9 | 0.00 | 0.00 | 0.00 | 67 | 1003.7 |
| 20260505111202 | 60 | 222 | 3.5 | 10.4 | 0.00 | 0.00 | 0.00 | 67 | 1003.7 |
| 20260505110658 | 60 | 215 | 6.1 | 9.6 | 0.00 | 0.00 | 0.00 | 66 | 1003.7 |
| 20260505110156 | 60 | 230 | 4.3 | 10.4 | 0.00 | 0.00 | 0.00 | 66 | 1003.4 |
| 20260505102131 | 59 | 224 | 3.5 | 7.8 | 0.00 | 0.00 | 0.00 | 70 | 1002.9 |
| 20260505101630 | 59 | 224 | 3.5 | 8.7 | 0.00 | 0.00 | 0.00 | 70 | 1003.0 |
| 20260505101125 | 59 | 229 | 3.5 | 8.7 | 0.00 | 0.00 | 0.00 | 69 | 1002.9 |
| 20260505100622 | 60 | 219 | 3.5 | 10.4 | 0.00 | 0.00 | 0.00 | 68 | 1002.6 |
| 20260505100119 | 60 | 212 | 6.1 | 13.0 | 0.00 | 0.00 | 0.00 | 69 | 1002.9 |
| 20260505095615 | 59 | 210 | 7.0 | 12.2 | 0.00 | 0.00 | 0.00 | 70 | 1002.8 |
| 20260505095112 | 59 | 212 | 7.0 | 17.4 | 0.00 | 0.00 | 0.00 | 71 | 1003.0 |
| 20260505094608 | 59 | 225 | 7.8 | 12.2 | 0.00 | 0.00 | 0.00 | 72 | 1003.1 |
| 20260505094104 | 59 | 204 | 3.5 | 13.0 | 0.00 | 0.00 | 0.00 | 72 | 1003.1 |
| 20260505093601 | 59 | 211 | 3.5 | 7.0 | 0.00 | 0.00 | 0.00 | 72 | 1003.1 |
| 20260505093058 | 59 | 191 | 1.7 | 9.6 | 0.00 | 0.00 | 0.00 | 71 | 1003.3 |
| 20260505092555 | 59 | 223 | 3.5 | 7.0 | 0.00 | 0.00 | 0.00 | 71 | 1003.2 |
| 20260505092054 | 59 | 200 | 7.8 | 12.2 | 0.00 | 0.00 | 0.00 | 71 | 1003.3 |
| 20260505091550 | 59 | 216 | 9.6 | 13.0 | 0.00 | 0.00 | 0.00 | 71 | 1003.0 |
| 20260505091049 | 59 | 216 | 8.7 | 16.5 | 0.00 | 0.00 | 0.00 | 71 | 1003.3 |
| 20260505090546 | 59 | 233 | 6.1 | 18.2 | 0.00 | 0.00 | 0.00 | 71 | 1003.3 |
| 20260505090044 | 59 | 230 | 6.1 | 15.6 | 0.00 | 0.00 | 0.00 | 70 | 1003.0 |
| 20260505085541 | 59 | 229 | 3.5 | 13.9 | 0.00 | 0.00 | 0.00 | 71 | 1002.8 |
| 20260505085040 | 59 | 227 | 5.2 | 14.8 | 0.00 | 0.00 | 0.00 | 71 | 1003.0 |
| 20260505084537 | 60 | 229 | 6.1 | 11.3 | 0.00 | 0.00 | 0.00 | 69 | 1002.8 |
| 20260505084035 | 60 | 243 | 3.5 | 9.6 | 0.00 | 0.00 | 0.00 | 70 | 1002.7 |
| 20260505083532 | 59 | 224 | 6.1 | 13.9 | 0.00 | 0.00 | 0.00 | 71 | 1002.7 |
| 20260505083029 | 59 | 223 | 6.1 | 11.3 | 0.00 | 0.00 | 0.00 | 72 | 1002.6 |
| 20260505082524 | 59 | 240 | 7.0 | 17.4 | 0.00 | 0.00 | 0.00 | 72 | 1002.6 |
| 20260505082021 | 60 | 236 | 7.8 | 17.4 | 0.00 | 0.00 | 0.00 | 71 | 1002.9 |
| 20260505081518 | 60 | 227 | 7.8 | 27.8 | 0.00 | 0.00 | 0.00 | 70 | 1002.8 |
| 20260505081015 | 62 | 235 | 7.0 | 26.1 | 0.00 | 0.00 | 0.00 | 64 | 1003.0 |
| 20260505080511 | 62 | 230 | 14.8 | 21.7 | 0.00 | 0.00 | 0.00 | 62 | 1002.8 |
| 20260505080008 | 63 | 233 | 8.7 | 20.9 | 0.00 | 0.00 | 0.00 | 62 | 1002.7 |
| 20260505075504 | 63 | 228 | 7.8 | 24.3 | 0.00 | 0.00 | 0.00 | 61 | 1002.8 |
| 20260505075001 | 63 | 234 | 7.8 | 26.1 | 0.00 | 0.00 | 0.00 | 60 | 1002.6 |
| 20260505074458 | 64 | 228 | 7.8 | 20.0 | 0.00 | 0.00 | 0.00 | 59 | 1002.8 |
| 20260505073955 | 64 | 228 | 5.2 | 14.8 | 0.00 | 0.00 | 0.00 | 59 | 1002.7 |
| 20260505073453 | 64 | 231 | 5.2 | 13.0 | 0.00 | 0.00 | 0.00 | 59 | 1002.4 |
| 20260505072950 | 64 | 214 | 10.4 | 25.2 | 0.00 | 0.00 | 0.00 | 59 | 1002.4 |
| 20260505072446 | 64 | 217 | 4.3 | 9.6 | 0.00 | 0.00 | 0.00 | 61 | 1002.4 |
| 20260505071942 | 63 | 216 | 7.0 | 11.3 | 0.00 | 0.00 | 0.00 | 61 | 1002.4 |
| 20260505071438 | 63 | 232 | 1.7 | 12.2 | 0.00 | 0.00 | 0.00 | 63 | 1002.1 |
| 20260505070937 | 63 | 206 | 5.2 | 13.9 | 0.00 | 0.00 | 0.00 | 61 | 1002.3 |
| 20260505070433 | 63 | 212 | 7.8 | 11.3 | 0.00 | 0.00 | 0.00 | 63 | 1002.5 |
| 20260505065929 | 62 | 206 | 2.6 | 7.0 | 0.00 | 0.00 | 0.00 | 64 | 1002.8 |
| 20260505065425 | 63 | 244 | 4.3 | 9.6 | 0.00 | 0.00 | 0.00 | 63 | 1003.0 |
| 20260505064922 | 63 | 252 | 7.8 | 13.0 | 0.00 | 0.00 | 0.00 | 62 | 1002.8 |
| 20260505064419 | 63 | 247 | 8.7 | 12.2 | 0.00 | 0.00 | 0.00 | 62 | 1002.7 |
| 20260505063918 | 64 | 263 | 7.8 | 11.3 | 0.00 | 0.00 | 0.00 | 62 | 1002.8 |
| 20260505063414 | 64 | 268 | 4.3 | 10.4 | 0.00 | 0.00 | 0.00 | 61 | 1002.5 |
| 20260505062910 | 64 | 258 | 6.1 | 9.6 | 0.00 | 0.00 | 0.00 | 61 | 1002.7 |
| 20260505062408 | 64 | 257 | 5.2 | 8.7 | 0.00 | 0.00 | 0.00 | 60 | 1002.8 |
| 20260505061904 | 65 | 261 | 6.1 | 7.8 | 0.00 | 0.00 | 0.00 | 59 | 1002.7 |
| 20260505061403 | 66 | 266 | 3.5 | 11.3 | 0.00 | 0.00 | 0.00 | 56 | 1002.6 |
| 20260505060900 | 66 | 271 | 6.1 | 13.9 | 0.00 | 0.00 | 0.00 | 55 | 1002.5 |
| 20260505060356 | 67 | 257 | 7.8 | 17.4 | 0.00 | 0.00 | 0.00 | 54 | 1002.8 |
| 20260505055852 | 67 | 274 | 7.0 | 13.9 | 0.00 | 0.00 | 0.00 | 54 | 1002.8 |
| 20260505055348 | 68 | 271 | 9.6 | 26.1 | 0.00 | 0.00 | 0.00 | 52 | 1002.7 |
| 20260505054846 | 68 | 235 | 5.2 | 20.0 | 0.00 | 0.00 | 0.00 | 50 | 1002.1 |
| 20260505054343 | 68 | 218 | 12.2 | 14.8 | 0.00 | 0.00 | 0.00 | 51 | 1002.0 |
| 20260505053841 | 68 | 219 | 7.0 | 17.4 | 0.00 | 0.00 | 0.00 | 51 | 1002.0 |
| 20260505053338 | 68 | 213 | 11.3 | 20.9 | 0.00 | 0.00 | 0.00 | 51 | 1002.0 |
| 20260505052834 | 67 | 211 | 7.0 | 17.4 | 0.00 | 0.00 | 0.00 | 52 | 1002.0 |
| 20260505052331 | 68 | 226 | 6.1 | 20.9 | 0.00 | 0.00 | 0.00 | 52 | 1002.1 |
| 20260505051829 | 67 | 204 | 10.4 | 20.0 | 0.00 | 0.00 | 0.00 | 53 | 1001.8 |
| 20260505051326 | 67 | 211 | 21.7 | 21.7 | 0.00 | 0.00 | 0.00 | 53 | 1001.8 |
| 20260505050824 | 67 | 198 | 8.7 | 21.7 | 0.00 | 0.00 | 0.00 | 53 | 1001.8 |
| 20260505050323 | 67 | 218 | 9.6 | 21.7 | 0.00 | 0.00 | 0.00 | 53 | 1001.9 |
| 20260505041752 | 67 | 194 | 3.5 | 20.9 | 0.00 | 0.00 | 0.00 | 53 | 1002.2 |
| 20260505041249 | 67 | 213 | 10.4 | 20.0 | 0.00 | 0.00 | 0.00 | 54 | 1002.1 |
| 20260505040747 | 66 | 215 | 14.8 | 14.8 | 0.00 | 0.00 | 0.00 | 55 | 1002.3 |
| 20260505040244 | 66 | 200 | 5.2 | 14.8 | 0.00 | 0.00 | 0.00 | 55 | 1002.3 |
| 20260505035741 | 66 | 206 | 6.1 | 16.5 | 0.00 | 0.00 | 0.00 | 55 | 1002.3 |
| 20260505035236 | 67 | 189 | 4.3 | 13.0 | 0.00 | 0.00 | 0.00 | 55 | 1002.4 |
| 20260505034734 | 66 | 180 | 4.3 | 12.2 | 0.00 | 0.00 | 0.00 | 55 | 1002.5 |
| 20260505034230 | 66 | 206 | 3.5 | 11.3 | 0.00 | 0.00 | 0.00 | 56 | 1002.5 |
| 20260505033727 | 66 | 193 | 7.0 | 11.3 | 0.00 | 0.00 | 0.00 | 55 | 1002.5 |
| 20260505033225 | 66 | 193 | 2.6 | 12.2 | 0.00 | 0.00 | 0.00 | 56 | 1002.5 |
| 20260505032723 | 66 | 180 | 4.3 | 10.4 | 0.00 | 0.00 | 0.00 | 56 | 1002.5 |
| 20260505032218 | 66 | 203 | 8.7 | 12.2 | 0.00 | 0.00 | 0.00 | 56 | 1002.6 |
| 20260505031716 | 66 | 223 | 4.3 | 13.0 | 0.00 | 0.00 | 0.00 | 56 | 1002.6 |
| 20260505031212 | 66 | 200 | 4.3 | 10.4 | 0.00 | 0.00 | 0.00 | 56 | 1002.8 |
| 20260505030709 | 66 | 213 | 3.5 | 14.8 | 0.00 | 0.00 | 0.00 | 55 | 1002.7 |
| 20260505030205 | 67 | 202 | 9.6 | 17.4 | 0.00 | 0.00 | 0.00 | 54 | 1002.7 |
| 20260505025701 | 67 | 181 | 2.6 | 13.0 | 0.00 | 0.00 | 0.00 | 54 | 1002.8 |
| 20260505025200 | 67 | 202 | 3.5 | 13.0 | 0.00 | 0.00 | 0.00 | 55 | 1002.8 |
| 20260505024657 | 67 | 215 | 10.4 | 10.4 | 0.00 | 0.00 | 0.00 | 55 | 1002.8 |
| 20260505024154 | 66 | 179 | 3.5 | 10.4 | 0.00 | 0.00 | 0.00 | 54 | 1002.6 |
| 20260505023651 | 67 | 188 | 4.3 | 13.0 | 0.00 | 0.00 | 0.00 | 54 | 1002.5 |
| 20260505023149 | 66 | 200 | 5.2 | 10.4 | 0.00 | 0.00 | 0.00 | 55 | 1002.7 |
| 20260505022646 | 66 | 187 | 3.5 | 9.6 | 0.00 | 0.00 | 0.00 | 55 | 1002.6 |
| 20260505022143 | 66 | 182 | 3.5 | 9.6 | 0.00 | 0.00 | 0.00 | 55 | 1002.6 |
| 20260505021639 | 66 | 205 | 4.3 | 7.8 | 0.00 | 0.00 | 0.00 | 54 | 1002.7 |
| 20260505021136 | 67 | 186 | 4.3 | 10.4 | 0.00 | 0.00 | 0.00 | 54 | 1002.6 |
| 20260505020632 | 67 | 175 | 2.6 | 8.7 | 0.00 | 0.00 | 0.00 | 53 | 1002.6 |
| 20260505020128 | 67 | 182 | 5.2 | 11.3 | 0.00 | 0.00 | 0.00 | 52 | 1002.6 |
| 20260505015626 | 68 | 207 | 3.5 | 14.8 | 0.00 | 0.00 | 0.00 | 52 | 1002.5 |
| 20260505015122 | 68 | 171 | 3.5 | 12.2 | 0.00 | 0.00 | 0.00 | 52 | 1002.5 |
| 20260505014619 | 68 | 170 | 2.6 | 9.6 | 0.00 | 0.00 | 0.00 | 52 | 1002.4 |